Location: Nag� el Ma?a??a
(24.0667°N, 32.8833°E)
Time: 03:15:30
(UTC+00:00)

N. Korean satellite - Visible Passes

Search period start: 27 November 2021 00:00
Search period end: 07 December 2021 00:00
Orbit: 447 x 495 km, 97.3° (Epoch: 26 November)

Date Brightness Start Highest point End Pass type
(mag) Time Alt. Az. Time Alt. Az. Time Alt. Az.
27 Nov 9.8 02:04:12 10° ENE 02:05:41 12° E 02:07:09 10° ESE visible
27 Nov 7.8 03:36:21 10° NNW 03:38:43 18° WNW 03:41:06 10° WSW visible
28 Nov 6.5 03:07:08 10° N 03:10:25 52° WNW 03:13:41 10° SSW visible
29 Nov 7.4 02:38:45 10° NNE 02:42:00 46° E 02:45:15 10° S visible
30 Nov 9.4 02:11:18 10° NE 02:13:31 16° E 02:15:42 10° SE visible
30 Nov 8.1 03:44:39 10° NW 03:46:29 14° WNW 03:48:17 10° WSW visible
01 Dec 6.8 03:15:01 10° N 03:18:10 37° WNW 03:21:18 10° SW visible
02 Dec 6.7 02:46:25 10° NNE 02:49:46 65° E 02:53:06 10° S visible
03 Dec 9.0 02:18:36 10° NE 02:21:16 21° E 02:23:54 10° SSE visible
03 Dec 8.4 03:53:22 10° WNW 03:54:09 11° WNW 03:54:56 10° W visible
04 Dec 7.3 03:22:54 10° NNW 03:25:50 28° WNW 03:28:47 10° SW visible
05 Dec 6.3 02:54:03 10° N 02:57:26 89° WNW 03:00:49 10° SSW visible
06 Dec 8.5 02:25:59 10° NE 02:28:56 28° E 02:31:54 10° SSE visible
